When you browse on this site, cookies collect data to enhance your experience and personalize the content and advertising you see.
Visit our Privacy Policy to learn more. By continuing to use the site, you agree to this use of cookies and data.
  • în România
  • Lista ţărilor
  • Pe 7 zile
  • Temperatura apei
  • Hartă satelitară
  • Meteo pe hartă
  • Widget-uri
  • user-avatar
    Intrare

    Meteo pe oră la Arroyo

    Astăzi, 16 Februarie, Sâmbătă

    Timp Temperatura Precipitaţii Vânt Presiune Umiditate
    00:00 +7°C° 0 mm 2 m/s 698 mmHg 75%
    01:00 +7°C° 0 mm 2 m/s 698 mmHg 74%
    02:00 +7°C° 0 mm 2 m/s 698 mmHg 73%
    03:00 +6°C° 0 mm 2 m/s 697 mmHg 72%
    04:00 +6°C° 0 mm 2 m/s 697 mmHg 70%
    05:00 +6°C° 0 mm 2 m/s 697 mmHg 67%
    06:00 +5°C° 0 mm 2 m/s 697 mmHg 64%
    07:00 +7°C° 0 mm 3 m/s 698 mmHg 58%
    08:00 +8°C° 0 mm 3 m/s 698 mmHg 51%
    09:00 +10°C° 0 mm 3 m/s 699 mmHg 44%
    10:00 +12°C° 0 mm 3 m/s 699 mmHg 37%
    11:00 +14°C° 0 mm 3 m/s 699 mmHg 30%
    12:00 +17°C° 0 mm 3 m/s 699 mmHg 23%
    13:00 +17°C° 0 mm 3 m/s 699 mmHg 23%
    14:00 +18°C° 0 mm 3 m/s 698 mmHg 23%
    15:00 +18°C° 0 mm 4 m/s 698 mmHg 24%
    16:00 +16°C° 0 mm 3 m/s 697 mmHg 30%
    17:00 +12°C° 0 mm 3 m/s 697 mmHg 37%
    18:00 +10°C° 0 mm 3 m/s 697 mmHg 44%
    19:00 +9°C° 0 mm 2 m/s 697 mmHg 50%
    20:00 +8°C° 0 mm 2 m/s 697 mmHg 55%
    21:00 +7°C° 0 mm 2 m/s 698 mmHg 61%
    22:00 +6°C° 0 mm 2 m/s 697 mmHg 63%
    23:00 +6°C° 0 mm 2 m/s 697 mmHg 65%

    Mâine, 17 Februarie, Duminică

    Timp Temperatura Precipitaţii Vânt Presiune Umiditate
    00:00 +5°C° 0 mm 2 m/s 697 mmHg 67%
    01:00 +5°C° 0 mm 2 m/s 697 mmHg 65%
    02:00 +4°C° 0 mm 2 m/s 697 mmHg 64%
    03:00 +4°C° 0 mm 2 m/s 697 mmHg 63%
    04:00 +5°C° 0 mm 1 m/s 697 mmHg 61%
    05:00 +5°C° 0 mm 1 m/s 696 mmHg 59%
    06:00 +5°C° 0 mm 1 m/s 696 mmHg 57%
    07:00 +6°C° 0 mm 1 m/s 697 mmHg 51%
    08:00 +8°C° 0 mm 1 m/s 697 mmHg 45%
    09:00 +10°C° 0 mm 1 m/s 698 mmHg 39%
    10:00 +12°C° 0 mm 1 m/s 698 mmHg 33%
    11:00 +14°C° 0 mm 1 m/s 698 mmHg 28%
    12:00 +18°C° 0 mm 1 m/s 698 mmHg 22%
    13:00 +18°C° 0 mm 1 m/s 697 mmHg 22%
    14:00 +18°C° 0 mm 1 m/s 697 mmHg 22%
    15:00 +17°C° 0 mm 2 m/s 696 mmHg 22%
    16:00 +15°C° 0 mm 1 m/s 696 mmHg 27%
    17:00 +13°C° 0 mm 1 m/s 695 mmHg 32%
    18:00 +11°C° 0 mm 1 m/s 695 mmHg 37%
    19:00 +10°C° 0 mm 1 m/s 695 mmHg 40%
    20:00 +10°C° 0 mm 1 m/s 695 mmHg 43%
    21:00 +9°C° 0 mm 1 m/s 695 mmHg 45%
    22:00 +8°C° 0 mm 1 m/s 695 mmHg 49%
    23:00 +8°C° 0 mm 1 m/s 695 mmHg 53%

    Poimâine, 18 Februarie, Luni

    Timp Temperatura Precipitaţii Vânt Presiune Umiditate
    00:00 +7°C° 0 mm 1 m/s 694 mmHg 57%
    01:00 +7°C° 0 mm 1 m/s 694 mmHg 60%
    02:00 +7°C° 0 mm 1 m/s 694 mmHg 64%
    03:00 +6°C° 0 mm 1 m/s 693 mmHg 67%
    04:00 +5°C° 0 mm 2 m/s 693 mmHg 66%
    05:00 +5°C° 0 mm 2 m/s 693 mmHg 65%
    06:00 +5°C° 0 mm 2 m/s 693 mmHg 64%
    07:00 +6°C° 0 mm 2 m/s 693 mmHg 58%
    08:00 +8°C° 0 mm 2 m/s 693 mmHg 51%
    09:00 +9°C° 0 mm 2 m/s 694 mmHg 45%
    10:00 +12°C° 0 mm 2 m/s 694 mmHg 39%
    11:00 +14°C° 0 mm 2 m/s 694 mmHg 34%
    12:00 +16°C° 0 mm 2 m/s 694 mmHg 28%
    13:00 +16°C° 0 mm 2 m/s 694 mmHg 29%
    14:00 +16°C° 0 mm 2 m/s 693 mmHg 30%
    15:00 +16°C° 0 mm 2 m/s 693 mmHg 31%
    16:00 +14°C° 0 mm 1 m/s 693 mmHg 38%
    17:00 +12°C° 0 mm 1 m/s 692 mmHg 44%
    18:00 +11°C° 0 mm 1 m/s 692 mmHg 50%
    19:00 +10°C° 0 mm 1 m/s 693 mmHg 55%
    20:00 +9°C° 0 mm 1 m/s 693 mmHg 60%
    21:00 +8°C° 0 mm 1 m/s 693 mmHg 64%
    22:00 +8°C° 0 mm 1 m/s 694 mmHg 67%
    23:00 +7°C° 0 mm 1 m/s 694 mmHg 70%

    19 Februarie, Marţi

    Timp Temperatura Precipitaţii Vânt Presiune Umiditate
    00:00 +7°C° 0 mm 1 m/s 694 mmHg 73%
    01:00 +6°C° 0 mm 1 m/s 694 mmHg 74%
    02:00 +6°C° 0 mm 1 m/s 694 mmHg 75%
    03:00 +5°C° 0 mm 0 m/s 694 mmHg 76%
    04:00 +5°C° 0 mm 0 m/s 694 mmHg 76%
    05:00 +4°C° 0 mm 0 m/s 694 mmHg 75%
    06:00 +4°C° 0 mm 0 m/s 694 mmHg 75%
    07:00 +6°C° 0 mm 0 m/s 694 mmHg 68%
    08:00 +7°C° 0 mm 0 m/s 695 mmHg 60%
    09:00 +9°C° 0 mm 0 m/s 696 mmHg 52%
    10:00 +11°C° 0 mm 0 m/s 696 mmHg 47%
    11:00 +14°C° 0 mm 1 m/s 696 mmHg 41%
    12:00 +16°C° 0 mm 1 m/s 696 mmHg 35%
    13:00 +16°C° 0 mm 1 m/s 696 mmHg 34%
    14:00 +16°C° 0 mm 1 m/s 695 mmHg 33%
    15:00 +16°C° 0 mm 1 m/s 695 mmHg 31%
    16:00 +15°C° 0 mm 1 m/s 694 mmHg 36%
    17:00 +13°C° 0 mm 1 m/s 694 mmHg 41%
    18:00 +12°C° 0 mm 1 m/s 694 mmHg 46%
    19:00 +11°C° 0 mm 1 m/s 694 mmHg 50%
    20:00 +10°C° 0 mm 1 m/s 695 mmHg 53%
    21:00 +8°C° 0 mm 0 m/s 695 mmHg 56%
    22:00 +7°C° 0 mm 0 m/s 695 mmHg 57%
    23:00 +8°C° 0 mm 1 m/s 695 mmHg 58%

    20 Februarie, Miercuri

    Timp Temperatura Precipitaţii Vânt Presiune Umiditate
    00:00 +8°C° 0 mm 1 m/s 695 mmHg 59%
    01:00 +7°C° 0 mm 1 m/s 695 mmHg 61%
    02:00 +7°C° 0 mm 1 m/s 695 mmHg 62%
    03:00 +7°C° 0 mm 1 m/s 695 mmHg 63%
    04:00 +6°C° 0 mm 1 m/s 695 mmHg 64%
    05:00 +6°C° 0 mm 1 m/s 695 mmHg 64%
    06:00 +6°C° 0 mm 1 m/s 695 mmHg 65%
    07:00 +8°C° 0 mm 1 m/s 696 mmHg 59%
    08:00 +9°C° 0 mm 1 m/s 696 mmHg 53%
    09:00 +11°C° 0 mm 1 m/s 697 mmHg 47%
    10:00 +13°C° 0 mm 1 m/s 697 mmHg 43%
    11:00 +14°C° 0 mm 0 m/s 698 mmHg 38%
    12:00 +16°C° 0 mm 0 m/s 698 mmHg 34%
    13:00 +18°C° 0 mm 1 m/s 698 mmHg 33%
    14:00 +18°C° 0 mm 1 m/s 697 mmHg 32%
    15:00 +18°C° 0 mm 1 m/s 697 mmHg 31%
    16:00 +15°C° 0 mm 1 m/s 697 mmHg 35%
    17:00 +14°C° 0 mm 1 m/s 697 mmHg 40%
    18:00 +12°C° 0 mm 1 m/s 697 mmHg 44%
    19:00 +11°C° 0 mm 1 m/s 697 mmHg 46%
    20:00 +10°C° 0 mm 1 m/s 697 mmHg 48%
    21:00 +10°C° 0 mm 1 m/s 698 mmHg 50%
    22:00 +9°C° 0 mm 1 m/s 698 mmHg 52%
    23:00 +9°C° 0 mm 1 m/s 698 mmHg 54%

    21 Februarie, Joi

    Timp Temperatura Precipitaţii Vânt Presiune Umiditate
    00:00 +8°C° 0 mm 1 m/s 697 mmHg 56%
    01:00 +8°C° 0 mm 1 m/s 697 mmHg 59%
    02:00 +6°C° 0 mm 2 m/s 697 mmHg 62%
    03:00 +6°C° 0 mm 2 m/s 697 mmHg 65%
    04:00 +5°C° 0 mm 2 m/s 697 mmHg 66%
    05:00 +5°C° 0 mm 2 m/s 697 mmHg 67%
    06:00 +5°C° 0 mm 2 m/s 697 mmHg 68%
    07:00 +7°C° 0 mm 2 m/s 697 mmHg 61%
    08:00 +8°C° 0 mm 2 m/s 698 mmHg 54%
    09:00 +10°C° 0 mm 2 m/s 699 mmHg 47%
    10:00 +13°C° 0 mm 2 m/s 699 mmHg 39%
    11:00 +15°C° 0 mm 2 m/s 699 mmHg 31%
    12:00 +17°C° 0 mm 2 m/s 699 mmHg 23%
    13:00 +17°C° 0 mm 2 m/s 699 mmHg 22%
    14:00 +17°C° 0 mm 2 m/s 699 mmHg 21%
    15:00 +18°C° 0 mm 2 m/s 699 mmHg 20%
    16:00 +15°C° 0 mm 2 m/s 698 mmHg 24%
    17:00 +13°C° 0 mm 1 m/s 698 mmHg 28%
    18:00 +11°C° 0 mm 1 m/s 698 mmHg 32%
    19:00 +11°C° 0 mm 1 m/s 698 mmHg 34%
    20:00 +10°C° 0 mm 1 m/s 699 mmHg 36%
    21:00 +9°C° 0 mm 1 m/s 699 mmHg 38%
    22:00 +9°C° 0 mm 1 m/s 699 mmHg 42%
    23:00 +8°C° 0 mm 1 m/s 699 mmHg 45%
    Arată mai mult